Time,TemperatureF,DewpointF,PressureIn,WindDirection,WindDirectionDegrees,WindSpeedMPH,WindSpeedGustMPH,Humidity,HourlyPrecipIn,Conditions,Clouds,dailyrainin,SoftwareType,DateUTC
2013-02-15 00:11:00,38.4,38.0,30.07,East,81,0.0,0.0,97,0.00,,,0.00,weatherlink.com 1.10,2013-02-15 05:11:00,
2013-02-15 00:26:00,38.2,38.0,30.06,East,81,0.0,1.0,97,0.00,,,0.00,weatherlink.com 1.10,2013-02-15 05:26:00,
2013-02-15 00:42:00,37.8,37.0,30.08,East,80,0.0,0.0,97,0.00,,,0.00,weatherlink.com 1.10,2013-02-15 05:42:00,
2013-02-15 00:56:00,37.4,37.0,30.09,East,81,0.0,0.0,97,0.00,,,0.00,weatherlink.com 1.10,2013-02-15 05:56:00,
2013-02-15 01:12:00,37.0,36.0,30.09,NNW,327,0.0,1.0,97,0.00,,,0.00,weatherlink.com 1.10,2013-02-15 06:12:00,
2013-02-15 01:29:00,36.8,36.0,30.09,NNW,328,0.0,1.0,97,0.00,,,0.00,weatherlink.com 1.10,2013-02-15 06:29:00,
2013-02-15 01:42:00,36.6,36.0,30.09,NNW,327,0.0,1.0,98,0.00,,,0.00,weatherlink.com 1.10,2013-02-15 06:42:00,
2013-02-15 01:57:00,36.7,36.0,30.09,NW,321,0.0,2.0,98,0.00,,,0.00,weatherlink.com 1.10,2013-02-15 06:57:00,
2013-02-15 02:12:00,36.7,36.0,30.09,NW,314,0.0,1.0,98,0.00,,,0.00,weatherlink.com 1.10,2013-02-15 07:12:00,
2013-02-15 02:27:00,36.6,36.0,30.09,NW,313,0.0,1.0,98,0.00,,,0.00,weatherlink.com 1.10,2013-02-15 07:27:00,
2013-02-15 02:42:00,36.4,36.0,30.09,NW,314,0.0,1.0,98,0.00,,,0.00,weatherlink.com 1.10,2013-02-15 07:42:00,
2013-02-15 02:57:00,36.1,36.0,30.08,NW,314,0.0,1.0,98,0.00,,,0.00,weatherlink.com 1.10,2013-02-15 07:57:00,
2013-02-15 03:12:00,35.7,35.0,30.08,NW,313,0.0,1.0,98,0.00,,,0.00,weatherlink.com 1.10,2013-02-15 08:12:00,
2013-02-15 03:27:00,35.3,35.0,30.07,NW,313,0.0,1.0,98,0.00,,,0.00,weatherlink.com 1.10,2013-02-15 08:27:00,
2013-02-15 03:42:00,35.0,35.0,30.07,NW,314,0.0,1.0,98,0.00,,,0.00,weatherlink.com 1.10,2013-02-15 08:42:00,
2013-02-15 03:57:00,34.8,34.0,30.07,NW,314,0.0,1.0,98,0.00,,,0.00,weatherlink.com 1.10,2013-02-15 08:57:00,
2013-02-15 04:12:00,34.5,34.0,30.07,NW,313,0.0,1.0,98,0.00,,,0.00,weatherlink.com 1.10,2013-02-15 09:12:00,
2013-02-15 04:27:00,34.3,34.0,30.07,NW,314,0.0,1.0,98,0.00,,,0.00,weatherlink.com 1.10,2013-02-15 09:27:00,
2013-02-15 04:42:00,34.1,34.0,30.06,NW,313,0.0,0.0,98,0.00,,,0.00,weatherlink.com 1.10,2013-02-15 09:42:00,
2013-02-15 04:57:00,33.9,33.0,30.07,NW,313,0.0,1.0,98,0.00,,,0.00,weatherlink.com 1.10,2013-02-15 09:57:00,
2013-02-15 05:12:00,33.6,33.0,30.08,NW,313,0.0,0.0,98,0.00,,,0.00,weatherlink.com 1.10,2013-02-15 10:12:00,
2013-02-15 05:27:00,33.3,33.0,30.08,NW,314,0.0,1.0,98,0.00,,,0.00,weatherlink.com 1.10,2013-02-15 10:27:00,
2013-02-15 05:42:00,33.1,33.0,30.09,NW,314,0.0,0.0,98,0.00,,,0.00,weatherlink.com 1.10,2013-02-15 10:42:00,
2013-02-15 05:57:00,32.8,32.0,30.09,NW,314,0.0,0.0,98,0.00,,,0.00,weatherlink.com 1.10,2013-02-15 10:57:00,
2013-02-15 06:12:00,32.7,32.0,30.09,NW,313,0.0,0.0,98,0.00,,,0.00,weatherlink.com 1.10,2013-02-15 11:12:00,
2013-02-15 06:27:00,32.5,32.0,30.09,NW,314,0.0,0.0,98,0.00,,,0.00,weatherlink.com 1.10,2013-02-15 11:27:00,
2013-02-15 06:42:00,32.5,32.0,30.10,NW,314,0.0,1.0,98,0.00,,,0.00,weatherlink.com 1.10,2013-02-15 11:42:00,
2013-02-15 06:57:00,32.2,32.0,30.10,NW,314,0.0,0.0,98,0.00,,,0.00,weatherlink.com 1.10,2013-02-15 11:57:00,
2013-02-15 07:12:00,32.1,32.0,30.10,NW,314,0.0,0.0,98,0.00,,,0.00,weatherlink.com 1.10,2013-02-15 12:12:00,
2013-02-15 07:27:00,32.6,32.0,30.11,NW,313,0.0,1.0,99,0.00,,,0.00,weatherlink.com 1.10,2013-02-15 12:27:00,
2013-02-15 07:42:00,33.5,33.0,30.10,NW,313,1.0,1.0,99,0.00,,,0.00,weatherlink.com 1.10,2013-02-15 12:42:00,
2013-02-15 07:57:00,34.4,34.0,30.11,NW,314,0.0,1.0,99,0.00,,,0.00,weatherlink.com 1.10,2013-02-15 12:57:00,
2013-02-15 08:12:00,36.5,36.0,30.12,SE,143,0.0,1.0,99,0.00,,,0.00,weatherlink.com 1.10,2013-02-15 13:12:00,
2013-02-15 08:27:00,39.8,40.0,30.12,SW,231,0.0,1.0,99,0.00,,,0.00,weatherlink.com 1.10,2013-02-15 13:27:00,
2013-02-15 08:43:00,41.8,42.0,30.12,SW,233,0.0,1.0,99,0.00,,,0.00,weatherlink.com 1.10,2013-02-15 13:43:00,
2013-02-15 08:58:00,43.8,44.0,30.12,WSW,256,1.0,1.0,99,0.00,,,0.00,weatherlink.com 1.10,2013-02-15 13:58:00,
2013-02-15 09:12:00,45.1,45.0,30.12,NNW,333,0.0,2.0,99,0.00,,,0.00,weatherlink.com 1.10,2013-02-15 14:12:00,
2013-02-15 09:28:00,46.8,47.0,30.12,WNW,288,2.0,4.0,99,0.00,,,0.00,weatherlink.com 1.10,2013-02-15 14:28:00,
2013-02-15 09:43:00,49.2,47.0,30.12,NE,51,1.0,3.0,93,0.00,,,0.00,weatherlink.com 1.10,2013-02-15 14:43:00,
2013-02-15 09:58:00,51.4,45.0,30.11,WNW,291,1.0,4.0,79,0.00,,,0.00,weatherlink.com 1.10,2013-02-15 14:58:00,
2013-02-15 10:13:00,53.3,44.0,30.11,NW,305,0.0,3.0,72,0.00,,,0.00,weatherlink.com 1.10,2013-02-15 15:13:00,
2013-02-15 10:28:00,54.4,44.0,30.11,NNE,12,1.0,4.0,68,0.00,,,0.00,weatherlink.com 1.10,2013-02-15 15:28:00,
2013-02-15 10:43:00,53.9,42.0,30.11,SSE,151,2.0,4.0,65,0.00,,,0.00,weatherlink.com 1.10,2013-02-15 15:43:00,
2013-02-15 10:58:00,55.2,42.0,30.11,ESE,115,0.0,5.0,61,0.00,,,0.00,weatherlink.com 1.10,2013-02-15 15:58:00,
2013-02-15 11:13:00,55.7,44.0,30.11,ENE,60,5.0,5.0,64,0.00,,,0.00,weatherlink.com 1.10,2013-02-15 16:13:00,
2013-02-15 11:28:00,55.0,44.0,30.11,East,98,2.0,8.0,67,0.00,,,0.00,weatherlink.com 1.10,2013-02-15 16:28:00,
2013-02-15 11:43:00,54.0,41.0,30.11,East,82,2.0,9.0,62,0.00,,,0.00,weatherlink.com 1.10,2013-02-15 16:43:00,
2013-02-15 11:58:00,54.4,39.0,30.10,SW,220,2.0,8.0,57,0.00,,,0.00,weatherlink.com 1.10,2013-02-15 16:58:00,
2013-02-15 12:13:00,54.7,41.0,30.10,South,187,1.0,6.0,60,0.00,,,0.00,weatherlink.com 1.10,2013-02-15 17:13:00,
2013-02-15 12:28:00,56.1,41.0,30.09,SSE,150,1.0,7.0,57,0.00,,,0.00,weatherlink.com 1.10,2013-02-15 17:28:00,
2013-02-15 12:43:00,54.9,40.0,30.09,WSW,256,3.0,8.0,58,0.00,,,0.00,weatherlink.com 1.10,2013-02-15 17:43:00,
2013-02-15 12:58:00,54.7,40.0,30.08,SSE,159,1.0,7.0,58,0.00,,,0.00,weatherlink.com 1.10,2013-02-15 17:58:00,
2013-02-15 13:13:00,55.0,40.0,30.07,ESE,104,2.0,6.0,57,0.00,,,0.00,weatherlink.com 1.10,2013-02-15 18:13:00,
2013-02-15 13:28:00,54.3,40.0,30.07,SSE,148,1.0,6.0,59,0.00,,,0.00,weatherlink.com 1.10,2013-02-15 18:28:00,
2013-02-15 13:43:00,54.4,40.0,30.07,North,4,0.0,8.0,59,0.00,,,0.00,weatherlink.com 1.10,2013-02-15 18:43:00,
2013-02-15 13:58:00,54.5,40.0,30.06,SSW,201,2.0,9.0,59,0.00,,,0.00,weatherlink.com 1.10,2013-02-15 18:58:00,
2013-02-15 14:13:00,54.7,40.0,30.05,SSE,147,1.0,8.0,59,0.00,,,0.00,weatherlink.com 1.10,2013-02-15 19:13:00,
2013-02-15 14:28:00,54.4,40.0,30.05,SSW,203,2.0,7.0,59,0.00,,,0.00,weatherlink.com 1.10,2013-02-15 19:28:00,
2013-02-15 14:43:00,54.2,40.0,30.04,ENE,69,3.0,7.0,59,0.00,,,0.00,weatherlink.com 1.10,2013-02-15 19:43:00,
2013-02-15 14:58:00,54.5,39.0,30.03,East,84,4.0,7.0,56,0.00,,,0.00,weatherlink.com 1.10,2013-02-15 19:58:00,
2013-02-15 15:13:00,55.2,39.0,30.03,ENE,70,2.0,5.0,55,0.00,,,0.00,weatherlink.com 1.10,2013-02-15 20:13:00,
2013-02-15 15:28:00,55.1,36.0,30.02,East,96,2.0,6.0,49,0.00,,,0.00,weatherlink.com 1.10,2013-02-15 20:28:00,
2013-02-15 15:43:00,55.1,39.0,30.02,SE,130,1.0,4.0,54,0.00,,,0.00,weatherlink.com 1.10,2013-02-15 20:43:00,
2013-02-15 15:58:00,54.5,40.0,30.02,ESE,115,1.0,5.0,58,0.00,,,0.00,weatherlink.com 1.10,2013-02-15 20:58:00,
2013-02-15 16:14:00,53.6,41.0,30.01,ENE,67,0.0,8.0,62,0.00,,,0.00,weatherlink.com 1.10,2013-02-15 21:14:00,
2013-02-15 16:29:00,53.5,42.0,30.02,SSE,162,1.0,4.0,65,0.00,,,0.00,weatherlink.com 1.10,2013-02-15 21:29:00,
2013-02-15 16:43:00,53.1,42.0,30.02,ENE,71,3.0,7.0,67,0.00,,,0.00,weatherlink.com 1.10,2013-02-15 21:43:00,
2013-02-15 16:58:00,52.5,43.0,30.01,SW,218,0.0,4.0,70,0.00,,,0.00,weatherlink.com 1.10,2013-02-15 21:58:00,
2013-02-15 17:14:00,52.2,43.0,30.01,SW,231,0.0,2.0,70,0.00,,,0.00,weatherlink.com 1.10,2013-02-15 22:14:00,
2013-02-15 17:28:00,51.6,43.0,30.00,East,96,0.0,3.0,73,0.00,,,0.00,weatherlink.com 1.10,2013-02-15 22:28:00,
2013-02-15 17:43:00,50.8,43.0,30.00,SSW,200,1.0,3.0,75,0.00,,,0.00,weatherlink.com 1.10,2013-02-15 22:43:00,
2013-02-15 17:58:00,49.8,43.0,30.00,West,269,0.0,1.0,77,0.00,,,0.00,weatherlink.com 1.10,2013-02-15 22:58:00,
2013-02-15 18:13:00,48.4,43.0,30.00,West,269,0.0,0.0,80,0.00,,,0.00,weatherlink.com 1.10,2013-02-15 23:13:00,
2013-02-15 18:29:00,46.9,42.0,30.01,West,269,0.0,0.0,84,0.00,,,0.00,weatherlink.com 1.10,2013-02-15 23:29:00,
2013-02-15 18:43:00,45.6,42.0,30.01,West,269,0.0,0.0,87,0.00,,,0.00,weatherlink.com 1.10,2013-02-15 23:43:00,
2013-02-15 18:58:00,44.4,41.0,30.02,West,269,0.0,0.0,89,0.00,,,0.00,weatherlink.com 1.10,2013-02-15 23:58:00,
2013-02-15 19:13:00,43.5,41.0,30.02,West,269,0.0,0.0,91,0.00,,,0.00,weatherlink.com 1.10,2013-02-16 00:13:00,
2013-02-15 19:28:00,42.5,40.0,30.02,West,269,0.0,0.0,92,0.00,,,0.00,weatherlink.com 1.10,2013-02-16 00:28:00,
2013-02-15 19:43:00,41.9,40.0,30.02,West,269,0.0,0.0,93,0.00,,,0.00,weatherlink.com 1.10,2013-02-16 00:43:00,
2013-02-15 19:59:00,41.3,40.0,30.02,West,269,0.0,0.0,93,0.00,,,0.00,weatherlink.com 1.10,2013-02-16 00:59:00,
2013-02-15 20:14:00,40.9,39.0,30.02,West,269,0.0,0.0,94,0.00,,,0.00,weatherlink.com 1.10,2013-02-16 01:14:00,
2013-02-15 20:28:00,40.4,39.0,30.02,West,268,0.0,0.0,95,0.00,,,0.00,weatherlink.com 1.10,2013-02-16 01:28:00,
2013-02-15 20:43:00,39.8,39.0,30.01,West,269,0.0,0.0,95,0.00,,,0.00,weatherlink.com 1.10,2013-02-16 01:43:00,
2013-02-15 20:59:00,39.6,39.0,30.00,West,269,0.0,0.0,96,0.00,,,0.00,weatherlink.com 1.10,2013-02-16 01:59:00,
2013-02-15 21:13:00,39.3,38.0,30.01,West,269,0.0,0.0,96,0.00,,,0.00,weatherlink.com 1.10,2013-02-16 02:13:00,
2013-02-15 21:28:00,39.2,38.0,30.01,West,269,0.0,0.0,96,0.00,,,0.00,weatherlink.com 1.10,2013-02-16 02:28:00,
2013-02-15 21:44:00,39.3,38.0,30.01,West,269,0.0,0.0,96,0.00,,,0.00,weatherlink.com 1.10,2013-02-16 02:44:00,
2013-02-15 21:59:00,39.3,38.0,30.01,West,269,0.0,0.0,96,0.00,,,0.00,weatherlink.com 1.10,2013-02-16 02:59:00,
2013-02-15 22:14:00,39.4,39.0,30.01,West,269,0.0,0.0,97,0.00,,,0.00,weatherlink.com 1.10,2013-02-16 03:14:00,
2013-02-15 22:29:00,38.9,38.0,30.00,West,268,0.0,0.0,96,0.00,,,0.00,weatherlink.com 1.10,2013-02-16 03:29:00,
2013-02-15 22:44:00,38.7,38.0,30.00,West,269,0.0,0.0,97,0.00,,,0.00,weatherlink.com 1.10,2013-02-16 03:44:00,
2013-02-15 22:59:00,38.5,38.0,30.00,West,269,0.0,0.0,97,0.00,,,0.00,weatherlink.com 1.10,2013-02-16 03:59:00,
2013-02-15 23:14:00,38.1,37.0,30.00,West,268,0.0,0.0,97,0.00,,,0.00,weatherlink.com 1.10,2013-02-16 04:14:00,
2013-02-15 23:29:00,37.8,37.0,29.99,West,269,0.0,0.0,97,0.00,,,0.00,weatherlink.com 1.10,2013-02-16 04:29:00,
2013-02-15 23:44:00,37.6,37.0,29.99,West,269,0.0,0.0,97,0.00,,,0.00,weatherlink.com 1.10,2013-02-16 04:44:00,
2013-02-15 23:59:00,37.5,37.0,29.98,West,269,0.0,0.0,97,0.00,,,0.00,weatherlink.com 1.10,2013-02-16 04:59:00,